TimeEDT,TemperatureF,Dew PointF,Humidity,Sea Level PressureIn,VisibilityMPH,Wind Direction,Wind SpeedMPH,Gust SpeedMPH,PrecipitationIn,Events,Conditions,WindDirDegrees,DateUTC
12:54 AM,73.0,70.0,90,30.07,7.0,ESE,6.9,-,N/A,,Mostly Cloudy,110,2013-06-05 04:54:00
1:03 AM,73.4,69.8,88,30.08,6.0,East,6.9,-,N/A,,Overcast,100,2013-06-05 05:03:00
1:16 AM,73.4,69.8,88,30.08,6.0,ENE,4.6,-,N/A,,Overcast,60,2013-06-05 05:16:00
1:54 AM,72.0,68.0,87,30.07,8.0,East,6.9,-,N/A,,Overcast,100,2013-06-05 05:54:00
2:54 AM,71.1,66.0,84,30.05,9.0,East,6.9,-,N/A,,Overcast,90,2013-06-05 06:54:00
3:54 AM,71.1,66.0,84,30.05,10.0,ESE,5.8,-,N/A,,Overcast,110,2013-06-05 07:54:00
4:54 AM,70.0,66.9,90,30.06,8.0,Variable,4.6,-,N/A,,Overcast,0,2013-06-05 08:54:00
5:54 AM,69.1,64.9,87,30.06,10.0,East,5.8,-,N/A,,Overcast,90,2013-06-05 09:54:00
6:54 AM,69.1,64.0,84,30.08,10.0,East,5.8,-,N/A,,Overcast,90,2013-06-05 10:54:00
7:54 AM,70.0,64.0,81,30.09,10.0,East,4.6,-,N/A,,Mostly Cloudy,100,2013-06-05 11:54:00
8:54 AM,72.0,64.9,78,30.10,10.0,ESE,9.2,-,N/A,,Mostly Cloudy,110,2013-06-05 12:54:00
9:54 AM,75.0,64.9,71,30.10,10.0,ENE,10.4,-,N/A,,Clear,70,2013-06-05 13:54:00
10:54 AM,78.1,64.0,62,30.09,10.0,East,12.7,19.6,N/A,,Mostly Cloudy,100,2013-06-05 14:54:00
11:54 AM,82.0,64.9,56,30.09,10.0,East,9.2,-,N/A,,Scattered Clouds,100,2013-06-05 15:54:00
12:54 PM,82.9,64.9,54,30.08,10.0,ESE,13.8,19.6,N/A,,Mostly Cloudy,120,2013-06-05 16:54:00
1:54 PM,84.0,64.9,53,30.06,10.0,ESE,6.9,-,N/A,,Scattered Clouds,110,2013-06-05 17:54:00
2:54 PM,86.0,66.0,51,30.04,10.0,ESE,10.4,-,N/A,,Clear,110,2013-06-05 18:54:00
3:54 PM,82.9,64.9,54,30.02,10.0,East,8.1,17.3,N/A,,Partly Cloudy,100,2013-06-05 19:54:00
4:54 PM,84.0,64.9,53,30.01,10.0,ESE,8.1,-,N/A,,Mostly Cloudy,110,2013-06-05 20:54:00
5:54 PM,77.0,69.1,76,30.01,10.0,SSE,9.2,-,N/A,,Overcast,160,2013-06-05 21:54:00
6:21 PM,73.4,71.6,94,30.01,1.8,SSE,8.1,-,0.04,Rain,Light Rain,160,2013-06-05 22:21:00
6:28 PM,73.4,69.8,88,30.00,1.2,SE,5.8,-,0.06,Rain,Rain,130,2013-06-05 22:28:00
6:32 PM,73.4,71.6,94,30.00,2.0,SE,5.8,-,0.06,Rain,Light Rain,130,2013-06-05 22:32:00
6:41 PM,73.4,71.6,94,30.00,6.0,SE,4.6,-,0.06,,Mostly Cloudy,130,2013-06-05 22:41:00
6:54 PM,75.0,72.0,90,30.00,5.0,ESE,3.5,-,0.06,,Scattered Clouds,110,2013-06-05 22:54:00
7:54 PM,75.0,71.1,87,30.01,7.0,Calm,Calm,-,N/A,,Scattered Clouds,0,2013-06-05 23:54:00
8:54 PM,73.0,70.0,90,30.02,9.0,SE,5.8,-,N/A,,Overcast,130,2013-06-06 00:54:00
9:54 PM,73.0,69.1,87,30.02,10.0,SE,5.8,-,N/A,,Overcast,130,2013-06-06 01:54:00
10:54 PM,73.0,68.0,84,30.03,10.0,ESE,4.6,-,N/A,,Overcast,110,2013-06-06 02:54:00
11:54 PM,73.0,68.0,84,30.01,10.0,ESE,6.9,-,N/A,,Overcast,110,2013-06-06 03:54:00